{"data":{"norad_id":67255,"intl_designator":"2025-313H","name":"2025-313H","alt_names":[],"object_type":"PAYLOAD","status":"ACTIVE","operator":null,"country":"TBD","launch_date":"2025-12-28","launch_site_code":"VOSTO","launch_vehicle":null,"mission":null,"orbit_class":"UNKNOWN","rcs_meters":null,"size_class":null,"mass_kg":null,"dimensions":null,"purposes":[],"wikipedia_slug":null,"has_3d_model":false,"image_url":null,"decayed_at":null,"tle_current":{"epoch":"2026-09-20T07:26:12.872544Z","epoch_age_seconds":119489,"freshness":"FRESH","line1":"1 67255U 25313H   26263.30987121  .00001459  00000+0  95224-4 0  9993","line2":"2 67255  97.2766 326.1675 0068269   8.6306 351.6079 15.07464683 39982","mean_motion":15.07464683,"eccentricity":0.0068269,"inclination_deg":97.2766,"raan_deg":326.1675,"arg_perigee_deg":8.6306,"mean_anomaly_deg":351.6079,"bstar":9.5224e-5,"rev_number":3998,"period_min":95.524625965649,"perigee_km":496.69398024712,"apogee_km":591.20677689667,"semimajor_km":6922.0873785719,"source":"CELESTRAK","updated_at":"2026-09-21T09:00:16.512616Z"}}}